Time,TemperatureF,DewpointF,PressureIn,WindDirection,WindDirectionDegrees,WindSpeedMPH,WindSpeedGustMPH,Humidity,HourlyPrecipIn,Conditions,Clouds,dailyrainin,SoftwareType,DateUTC
2013-03-14 00:00:00,21.7,15.3,29.99,ESE,108,3.0,3.0,76,0.00,,,0.00,Wunderground v.1.15,2013-03-14 04:00:00,
2013-03-14 00:04:00,21.7,14.4,30.00,WSW,246,3.0,7.0,73,0.00,,,0.00,Wunderground v.1.15,2013-03-14 04:04:00,
2013-03-14 00:10:00,21.5,13.9,30.00,WNW,302,4.0,6.0,72,0.00,,,0.00,Wunderground v.1.15,2013-03-14 04:10:00,
2013-03-14 00:14:00,21.3,13.4,30.00,WSW,245,4.0,6.0,71,0.00,,,0.00,Wunderground v.1.15,2013-03-14 04:14:00,
2013-03-14 00:18:00,21.3,13.4,30.00,SW,217,4.0,6.0,71,0.00,,,0.00,Wunderground v.1.15,2013-03-14 04:18:00,
2013-03-14 00:24:00,21.4,13.1,30.01,SSE,160,3.0,6.0,70,0.00,,,0.00,Wunderground v.1.15,2013-03-14 04:24:00,
2013-03-14 00:30:00,21.4,13.1,30.01,NNE,17,4.0,7.0,70,0.00,,,0.00,Wunderground v.1.15,2013-03-14 04:30:00,
2013-03-14 00:36:00,21.3,13.4,30.01,SW,234,3.0,7.0,71,0.00,,,0.00,Wunderground v.1.15,2013-03-14 04:36:00,
2013-03-14 00:42:00,21.2,12.9,30.01,SW,222,3.0,4.0,70,0.00,,,0.00,Wunderground v.1.15,2013-03-14 04:42:00,
2013-03-14 00:48:00,21.3,13.0,30.01,SW,229,3.0,5.0,70,0.00,,,0.00,Wunderground v.1.15,2013-03-14 04:48:00,
2013-03-14 00:54:00,21.2,12.9,30.01,NW,309,2.0,4.0,70,0.00,,,0.00,Wunderground v.1.15,2013-03-14 04:54:00,
2013-03-14 01:00:00,21.2,12.9,30.01,NNE,32,3.0,4.0,70,0.00,,,0.00,Wunderground v.1.15,2013-03-14 05:00:00,
2013-03-14 01:06:00,21.1,12.5,30.01,West,269,3.0,8.0,69,0.00,,,0.00,Wunderground v.1.15,2013-03-14 05:06:00,
2013-03-14 01:12:00,21.0,12.4,30.01,NNW,345,3.0,3.0,69,0.00,,,0.00,Wunderground v.1.15,2013-03-14 05:12:00,
2013-03-14 01:18:00,21.1,12.2,30.01,SW,215,2.0,7.0,68,0.00,,,0.00,Wunderground v.1.15,2013-03-14 05:18:00,
2013-03-14 01:24:00,21.1,11.8,30.01,NNW,330,3.0,5.0,67,0.00,,,0.00,Wunderground v.1.15,2013-03-14 05:24:00,
2013-03-14 01:30:00,21.2,11.6,30.01,North,359,2.0,2.0,66,0.00,,,0.00,Wunderground v.1.15,2013-03-14 05:30:00,
2013-03-14 01:36:00,21.3,11.7,30.01,SSW,205,2.0,5.0,66,0.00,,,0.00,Wunderground v.1.15,2013-03-14 05:36:00,
2013-03-14 01:42:00,21.3,11.7,30.01,NNE,17,2.0,2.0,66,0.00,,,0.00,Wunderground v.1.15,2013-03-14 05:42:00,
2013-03-14 01:48:00,21.4,12.1,30.01,East,87,2.0,3.0,67,0.00,,,0.00,Wunderground v.1.15,2013-03-14 05:48:00,
2013-03-14 01:54:00,21.4,12.5,30.01,North,5,2.0,4.0,68,0.00,,,0.00,Wunderground v.1.15,2013-03-14 05:54:00,
2013-03-14 02:00:00,21.4,12.5,30.01,North,1,1.0,1.0,68,0.00,,,0.00,Wunderground v.1.15,2013-03-14 06:00:00,
2013-03-14 02:06:00,21.4,12.8,30.02,NW,318,2.0,5.0,69,0.00,,,0.00,Wunderground v.1.15,2013-03-14 06:06:00,
2013-03-14 02:12:00,21.3,13.0,30.02,North,353,2.0,6.0,70,0.00,,,0.00,Wunderground v.1.15,2013-03-14 06:12:00,
2013-03-14 02:18:00,21.3,13.0,30.02,SSW,207,1.0,6.0,70,0.00,,,0.00,Wunderground v.1.15,2013-03-14 06:18:00,
2013-03-14 02:24:00,21.3,13.0,30.02,NNW,338,2.0,3.0,70,0.00,,,0.00,Wunderground v.1.15,2013-03-14 06:24:00,
2013-03-14 02:30:00,21.3,13.0,30.02,NNW,348,1.0,1.0,70,0.00,,,0.00,Wunderground v.1.15,2013-03-14 06:30:00,
2013-03-14 02:36:00,21.3,13.0,30.02,NNW,340,1.0,3.0,70,0.00,,,0.00,Wunderground v.1.15,2013-03-14 06:36:00,
2013-03-14 02:42:00,21.2,12.9,30.02,South,175,2.0,2.0,70,0.00,,,0.00,Wunderground v.1.15,2013-03-14 06:42:00,
2013-03-14 02:48:00,21.2,12.6,30.02,NNW,343,2.0,2.0,69,0.00,,,0.00,Wunderground v.1.15,2013-03-14 06:48:00,
2013-03-14 02:54:00,21.1,12.8,30.02,NNE,17,1.0,2.0,70,0.00,,,0.00,Wunderground v.1.15,2013-03-14 06:54:00,
2013-03-14 03:00:00,21.1,12.8,30.02,West,273,1.0,1.0,70,0.00,,,0.00,Wunderground v.1.15,2013-03-14 07:00:00,
2013-03-14 03:06:00,21.2,12.9,30.02,NNW,342,1.0,1.0,70,0.00,,,0.00,Wunderground v.1.15,2013-03-14 07:06:00,
2013-03-14 03:12:00,21.2,12.9,30.02,NW,316,1.0,2.0,70,0.00,,,0.00,Wunderground v.1.15,2013-03-14 07:12:00,
2013-03-14 03:18:00,21.2,12.9,30.02,ENE,77,1.0,2.0,70,0.00,,,0.00,Wunderground v.1.15,2013-03-14 07:18:00,
2013-03-14 03:24:00,21.3,13.0,30.02,WNW,298,1.0,2.0,70,0.00,,,0.00,Wunderground v.1.15,2013-03-14 07:24:00,
2013-03-14 03:30:00,21.3,13.0,30.02,WSW,242,0.0,0.0,70,0.00,,,0.00,Wunderground v.1.15,2013-03-14 07:30:00,
2013-03-14 03:36:00,21.3,13.0,30.03,SW,225,1.0,2.0,70,0.00,,,0.00,Wunderground v.1.15,2013-03-14 07:36:00,
2013-03-14 03:42:00,21.3,13.4,30.03,North,1,1.0,1.0,71,0.00,,,0.00,Wunderground v.1.15,2013-03-14 07:42:00,
2013-03-14 03:48:00,21.3,13.4,30.03,NNE,15,0.0,1.0,71,0.00,,,0.00,Wunderground v.1.15,2013-03-14 07:48:00,
2013-03-14 03:54:00,21.3,13.7,30.03,NE,48,0.0,0.0,72,0.00,,,0.00,Wunderground v.1.15,2013-03-14 07:54:00,
2013-03-14 04:00:00,21.4,13.8,30.03,North,10,0.0,3.0,72,0.00,,,0.00,Wunderground v.1.15,2013-03-14 08:00:00,
2013-03-14 04:06:00,21.1,15.0,30.03,West,262,1.0,3.0,77,0.00,,,0.00,Wunderground v.1.15,2013-03-14 08:06:00,
2013-03-14 04:12:00,20.9,15.4,30.03,North,350,1.0,1.0,79,0.00,,,0.00,Wunderground v.1.15,2013-03-14 08:12:00,
2013-03-14 04:18:00,20.7,15.5,30.03,NNW,345,0.0,1.0,80,0.00,,,0.00,Wunderground v.1.15,2013-03-14 08:18:00,
2013-03-14 04:24:00,20.6,15.7,30.03,NW,323,1.0,1.0,81,0.00,,,0.00,Wunderground v.1.15,2013-03-14 08:24:00,
2013-03-14 04:30:00,20.5,15.9,30.03,NW,316,1.0,1.0,82,0.00,,,0.00,Wunderground v.1.15,2013-03-14 08:30:00,
2013-03-14 04:36:00,20.5,16.2,30.03,NNW,342,1.0,2.0,83,0.00,,,0.00,Wunderground v.1.15,2013-03-14 08:36:00,
2013-03-14 04:42:00,20.5,16.2,30.04,North,6,0.0,1.0,83,0.00,,,0.00,Wunderground v.1.15,2013-03-14 08:42:00,
2013-03-14 04:48:00,20.5,16.2,30.04,WSW,248,0.0,1.0,83,0.00,,,0.00,Wunderground v.1.15,2013-03-14 08:48:00,
2013-03-14 04:54:00,20.5,16.4,30.04,NW,323,0.0,2.0,84,0.00,,,0.00,Wunderground v.1.15,2013-03-14 08:54:00,
2013-03-14 05:00:00,20.4,16.3,30.03,WNW,285,0.0,2.0,84,0.00,,,0.00,Wunderground v.1.15,2013-03-14 09:00:00,
2013-03-14 05:06:00,20.3,16.5,30.03,West,274,1.0,2.0,85,0.00,,,0.00,Wunderground v.1.15,2013-03-14 09:06:00,
2013-03-14 05:12:00,20.3,16.5,30.03,North,8,0.0,1.0,85,0.00,,,0.00,Wunderground v.1.15,2013-03-14 09:12:00,
2013-03-14 05:18:00,20.2,16.4,30.04,ESE,122,0.0,1.0,85,0.00,,,0.00,Wunderground v.1.15,2013-03-14 09:18:00,
2013-03-14 05:24:00,20.2,16.4,30.04,NNE,17,0.0,0.0,85,0.00,,,0.00,Wunderground v.1.15,2013-03-14 09:24:00,
2013-03-14 05:30:00,20.2,16.7,30.04,NNE,19,0.0,0.0,86,0.00,,,0.00,Wunderground v.1.15,2013-03-14 09:30:00,
2013-03-14 05:36:00,20.2,16.7,30.05,NNW,345,0.0,0.0,86,0.00,,,0.00,Wunderground v.1.15,2013-03-14 09:36:00,
2013-03-14 05:42:00,20.2,16.7,30.05,WSW,250,0.0,0.0,86,0.00,,,0.00,Wunderground v.1.15,2013-03-14 09:42:00,
2013-03-14 05:48:00,20.2,16.7,30.05,WSW,250,0.0,0.0,86,0.00,,,0.00,Wunderground v.1.15,2013-03-14 09:48:00,
2013-03-14 05:54:00,20.2,16.7,30.05,WSW,250,0.0,0.0,86,0.00,,,0.00,Wunderground v.1.15,2013-03-14 09:54:00,
2013-03-14 06:00:00,20.3,17.0,30.05,North,8,0.0,0.0,87,0.00,,,0.00,Wunderground v.1.15,2013-03-14 10:00:00,
2013-03-14 06:06:00,20.4,17.1,30.05,SW,233,0.0,0.0,87,0.00,,,0.00,Wunderground v.1.15,2013-03-14 10:06:00,
2013-03-14 06:12:00,20.4,17.1,30.05,SSW,197,0.0,0.0,87,0.00,,,0.00,Wunderground v.1.15,2013-03-14 10:12:00,
2013-03-14 06:18:00,20.4,17.1,30.05,SW,231,0.0,0.0,87,0.00,,,0.00,Wunderground v.1.15,2013-03-14 10:18:00,
2013-03-14 06:24:00,20.4,17.1,30.06,SW,231,0.0,0.0,87,0.00,,,0.00,Wunderground v.1.15,2013-03-14 10:24:00,
2013-03-14 06:30:00,20.6,17.1,30.05,WNW,290,0.0,0.0,86,0.00,,,0.00,Wunderground v.1.15,2013-03-14 10:30:00,
2013-03-14 06:36:00,20.7,16.9,30.06,WSW,248,0.0,2.0,85,0.00,,,0.00,Wunderground v.1.15,2013-03-14 10:36:00,
2013-03-14 06:42:00,21.1,15.9,30.06,NE,41,1.0,4.0,80,0.00,,,0.00,Wunderground v.1.15,2013-03-14 10:42:00,
2013-03-14 06:48:00,21.5,14.5,30.06,SW,231,1.0,4.0,74,0.00,,,0.00,Wunderground v.1.15,2013-03-14 10:48:00,
2013-03-14 06:54:00,21.9,13.9,30.06,SW,222,2.0,5.0,71,0.00,,,0.00,Wunderground v.1.15,2013-03-14 10:54:00,
2013-03-14 07:00:00,22.1,13.8,30.06,WSW,247,2.0,4.0,70,0.00,,,0.00,Wunderground v.1.15,2013-03-14 11:00:00,
2013-03-14 07:06:00,22.2,13.6,30.07,NW,309,2.0,4.0,69,0.00,,,0.00,Wunderground v.1.15,2013-03-14 11:06:00,
2013-03-14 07:12:00,22.3,13.7,30.07,North,11,1.0,4.0,69,0.00,,,0.00,Wunderground v.1.15,2013-03-14 11:12:00,
2013-03-14 07:18:00,22.3,14.0,30.07,SW,235,2.0,4.0,70,0.00,,,0.00,Wunderground v.1.15,2013-03-14 11:18:00,
2013-03-14 07:24:00,22.2,14.5,30.07,West,259,1.0,2.0,72,0.00,,,0.00,Wunderground v.1.15,2013-03-14 11:24:00,
2013-03-14 07:30:00,22.0,14.7,30.07,SSE,167,1.0,1.0,73,0.00,,,0.00,Wunderground v.1.15,2013-03-14 11:30:00,
2013-03-14 07:36:00,21.9,14.6,30.07,East,82,2.0,3.0,73,0.00,,,0.00,Wunderground v.1.15,2013-03-14 11:36:00,
2013-03-14 07:42:00,21.8,14.8,30.07,South,181,2.0,2.0,74,0.00,,,0.00,Wunderground v.1.15,2013-03-14 11:42:00,
2013-03-14 07:48:00,21.7,14.7,30.07,SSW,194,2.0,2.0,74,0.00,,,0.00,Wunderground v.1.15,2013-03-14 11:48:00,
2013-03-14 07:54:00,21.7,14.7,30.08,NE,44,2.0,3.0,74,0.00,,,0.00,Wunderground v.1.15,2013-03-14 11:54:00,
2013-03-14 08:00:00,21.6,14.6,30.08,SSW,200,2.0,2.0,74,0.00,,,0.00,Wunderground v.1.15,2013-03-14 12:00:00,
2013-03-14 08:06:00,21.5,14.5,30.08,North,8,2.0,5.0,74,0.00,,,0.00,Wunderground v.1.15,2013-03-14 12:06:00,
2013-03-14 08:12:00,21.5,14.5,30.08,South,183,3.0,3.0,74,0.00,,,0.00,Wunderground v.1.15,2013-03-14 12:12:00,
2013-03-14 08:18:00,21.4,14.4,30.08,SW,224,2.0,3.0,74,0.00,,,0.00,Wunderground v.1.15,2013-03-14 12:18:00,
2013-03-14 08:24:00,21.4,14.4,30.08,WSW,238,2.0,4.0,74,0.00,,,0.00,Wunderground v.1.15,2013-03-14 12:24:00,
2013-03-14 08:30:00,21.3,14.3,30.08,South,179,2.0,2.0,74,0.00,,,0.00,Wunderground v.1.15,2013-03-14 12:30:00,
2013-03-14 08:36:00,21.3,14.3,30.09,WSW,254,2.0,2.0,74,0.00,,,0.00,Wunderground v.1.15,2013-03-14 12:36:00,
2013-03-14 08:42:00,21.2,13.9,30.09,WSW,253,2.0,3.0,73,0.00,,,0.00,Wunderground v.1.15,2013-03-14 12:42:00,
2013-03-14 08:48:00,21.2,13.9,30.09,West,270,3.0,3.0,73,0.00,,,0.00,Wunderground v.1.15,2013-03-14 12:48:00,
2013-03-14 08:54:00,21.3,14.0,30.09,SSW,205,3.0,4.0,73,0.00,,,0.00,Wunderground v.1.15,2013-03-14 12:54:00,
2013-03-14 09:00:00,21.6,14.0,30.09,SSW,200,3.0,4.0,72,0.00,,,0.00,Wunderground v.1.15,2013-03-14 13:00:00,
2013-03-14 09:06:00,22.1,14.1,30.09,SSW,194,3.0,4.0,71,0.00,,,0.00,Wunderground v.1.15,2013-03-14 13:06:00,
2013-03-14 09:12:00,22.8,14.5,30.09,SSE,161,2.0,4.0,70,0.00,,,0.00,Wunderground v.1.15,2013-03-14 13:12:00,
2013-03-14 09:18:00,23.4,14.4,30.09,East,100,2.0,4.0,68,0.00,,,0.00,Wunderground v.1.15,2013-03-14 13:18:00,
2013-03-14 09:24:00,23.6,14.6,30.09,WNW,286,2.0,2.0,68,0.00,,,0.00,Wunderground v.1.15,2013-03-14 13:24:00,
2013-03-14 09:30:00,23.9,14.5,30.09,SE,146,3.0,3.0,67,0.00,,,0.00,Wunderground v.1.15,2013-03-14 13:30:00,
2013-03-14 09:36:00,24.3,14.9,30.09,West,263,3.0,3.0,67,0.00,,,0.00,Wunderground v.1.15,2013-03-14 13:36:00,
2013-03-14 09:42:00,24.6,14.9,30.09,SSW,205,3.0,3.0,66,0.00,,,0.00,Wunderground v.1.15,2013-03-14 13:42:00,
2013-03-14 09:48:00,25.0,14.9,30.09,NE,38,2.0,3.0,65,0.00,,,0.00,Wunderground v.1.15,2013-03-14 13:48:00,
2013-03-14 09:54:00,25.0,14.5,30.09,NNW,336,3.0,3.0,64,0.00,,,0.00,Wunderground v.1.15,2013-03-14 13:54:00,
2013-03-14 10:00:00,25.5,15.4,30.09,SW,217,2.0,5.0,65,0.00,,,0.00,Wunderground v.1.15,2013-03-14 14:00:00,
2013-03-14 10:06:00,25.5,15.0,30.09,SW,236,3.0,9.0,64,0.00,,,0.00,Wunderground v.1.15,2013-03-14 14:06:00,
2013-03-14 10:12:00,25.9,15.0,30.09,SE,131,3.0,6.0,63,0.00,,,0.00,Wunderground v.1.15,2013-03-14 14:12:00,
2013-03-14 10:18:00,26.2,14.9,30.09,SSW,197,3.0,6.0,62,0.00,,,0.00,Wunderground v.1.15,2013-03-14 14:18:00,
2013-03-14 10:24:00,26.2,14.2,30.09,NE,34,3.0,5.0,60,0.00,,,0.00,Wunderground v.1.15,2013-03-14 14:24:00,
2013-03-14 10:30:00,26.5,13.3,30.09,West,266,3.0,3.0,57,0.00,,,0.00,Wunderground v.1.15,2013-03-14 14:30:00,
2013-03-14 10:36:00,26.7,13.1,30.09,WSW,246,3.0,6.0,56,0.00,,,0.00,Wunderground v.1.15,2013-03-14 14:36:00,
2013-03-14 10:42:00,27.0,13.4,30.09,NNW,348,3.0,3.0,56,0.00,,,0.00,Wunderground v.1.15,2013-03-14 14:42:00,
2013-03-14 10:48:00,27.0,13.4,30.09,West,260,3.0,4.0,56,0.00,,,0.00,Wunderground v.1.15,2013-03-14 14:48:00,
2013-03-14 10:54:00,27.5,13.8,30.09,NE,51,3.0,4.0,56,0.00,,,0.00,Wunderground v.1.15,2013-03-14 14:54:00,
2013-03-14 11:00:00,28.0,13.1,30.08,SSW,200,3.0,5.0,53,0.00,,,0.00,Wunderground v.1.15,2013-03-14 15:00:00,
2013-03-14 11:06:00,27.7,12.8,30.09,South,188,3.0,5.0,53,0.00,,,0.00,Wunderground v.1.15,2013-03-14 15:06:00,
2013-03-14 11:12:00,27.6,12.7,30.09,SSW,203,4.0,4.0,53,0.00,,,0.00,Wunderground v.1.15,2013-03-14 15:12:00,
2013-03-14 11:18:00,28.1,11.4,30.09,SW,228,3.0,8.0,49,0.00,,,0.00,Wunderground v.1.15,2013-03-14 15:18:00,
2013-03-14 11:24:00,28.3,11.1,30.09,West,276,4.0,5.0,48,0.00,,,0.00,Wunderground v.1.15,2013-03-14 15:24:00,
2013-03-14 11:30:00,28.8,10.6,30.09,WNW,290,3.0,3.0,46,0.00,,,0.00,Wunderground v.1.15,2013-03-14 15:30:00,
2013-03-14 11:36:00,28.7,9.5,30.09,NE,44,3.0,6.0,44,0.00,,,0.00,Wunderground v.1.15,2013-03-14 15:36:00,
2013-03-14 11:42:00,28.5,9.3,30.09,SSE,156,4.0,6.0,44,0.00,,,0.00,Wunderground v.1.15,2013-03-14 15:42:00,
2013-03-14 11:48:00,28.8,9.6,30.09,SW,231,4.0,7.0,44,0.00,,,0.00,Wunderground v.1.15,2013-03-14 15:48:00,
2013-03-14 11:54:00,29.2,9.4,30.09,WSW,240,4.0,4.0,43,0.00,,,0.00,Wunderground v.1.15,2013-03-14 15:54:00,
2013-03-14 12:00:00,29.2,9.4,30.09,NNE,29,4.0,4.0,43,0.00,,,0.00,Wunderground v.1.15,2013-03-14 16:00:00,
2013-03-14 12:06:00,29.6,10.3,30.09,SSW,203,4.0,7.0,44,0.00,,,0.00,Wunderground v.1.15,2013-03-14 16:06:00,
2013-03-14 12:12:00,29.8,11.0,30.09,NW,318,3.0,5.0,45,0.00,,,0.00,Wunderground v.1.15,2013-03-14 16:12:00,
2013-03-14 12:18:00,30.2,9.3,30.09,West,281,3.0,5.0,41,0.00,,,0.00,Wunderground v.1.15,2013-03-14 16:18:00,
2013-03-14 12:24:00,30.3,9.9,30.09,SW,232,4.0,5.0,42,0.00,,,0.00,Wunderground v.1.15,2013-03-14 16:24:00,
2013-03-14 12:30:00,30.6,9.7,30.09,WNW,297,3.0,3.0,41,0.00,,,0.00,Wunderground v.1.15,2013-03-14 16:30:00,
2013-03-14 12:36:00,30.9,9.9,30.09,WNW,283,4.0,9.0,41,0.00,,,0.00,Wunderground v.1.15,2013-03-14 16:36:00,
2013-03-14 12:42:00,30.8,6.9,30.09,SSW,210,4.0,4.0,36,0.00,,,0.00,Wunderground v.1.15,2013-03-14 16:42:00,
2013-03-14 12:48:00,30.9,8.2,30.09,WSW,256,4.0,5.0,38,0.00,,,0.00,Wunderground v.1.15,2013-03-14 16:48:00,
2013-03-14 12:54:00,30.8,7.6,30.09,NNW,330,4.0,5.0,37,0.00,,,0.00,Wunderground v.1.15,2013-03-14 16:54:00,
2013-03-14 13:00:00,30.8,7.6,30.09,West,261,4.0,4.0,37,0.00,,,0.00,Wunderground v.1.15,2013-03-14 17:00:00,
2013-03-14 13:06:00,31.0,6.5,30.09,South,170,4.0,6.0,35,0.00,,,0.00,Wunderground v.1.15,2013-03-14 17:06:00,
2013-03-14 13:12:00,31.6,6.4,30.09,SW,236,4.0,4.0,34,0.00,,,0.00,Wunderground v.1.15,2013-03-14 17:12:00,
2013-03-14 13:18:00,31.7,5.8,30.09,ENE,65,4.0,4.0,33,0.00,,,0.00,Wunderground v.1.15,2013-03-14 17:18:00,
2013-03-14 13:24:00,31.7,6.5,30.09,NW,326,4.0,5.0,34,0.00,,,0.00,Wunderground v.1.15,2013-03-14 17:24:00,
2013-03-14 13:30:00,31.8,5.2,30.09,West,281,4.0,4.0,32,0.00,,,0.00,Wunderground v.1.15,2013-03-14 17:30:00,
2013-03-14 13:36:00,31.5,4.3,30.08,NW,321,5.0,5.0,31,0.00,,,0.00,Wunderground v.1.15,2013-03-14 17:36:00,
2013-03-14 13:42:00,32.0,6.8,30.08,ENE,73,4.0,6.0,34,0.00,,,0.00,Wunderground v.1.15,2013-03-14 17:42:00,
2013-03-14 13:48:00,32.1,5.5,30.09,WNW,289,4.0,7.0,32,0.00,,,0.00,Wunderground v.1.15,2013-03-14 17:48:00,
2013-03-14 13:54:00,32.0,4.7,30.08,NNE,15,4.0,4.0,31,0.00,,,0.00,Wunderground v.1.15,2013-03-14 17:54:00,
2013-03-14 14:00:00,32.1,4.8,30.08,South,176,4.0,4.0,31,0.00,,,0.00,Wunderground v.1.15,2013-03-14 18:00:00,
2013-03-14 14:06:00,32.3,5.0,30.08,SSW,211,4.0,6.0,31,0.00,,,0.00,Wunderground v.1.15,2013-03-14 18:06:00,
2013-03-14 14:12:00,32.3,6.4,30.08,South,179,4.0,4.0,33,0.00,,,0.00,Wunderground v.1.15,2013-03-14 18:12:00,
2013-03-14 14:18:00,32.0,4.0,30.08,NNW,338,5.0,8.0,30,0.00,,,0.00,Wunderground v.1.15,2013-03-14 18:18:00,
2013-03-14 14:24:00,31.8,4.5,30.08,SW,222,5.0,6.0,31,0.00,,,0.00,Wunderground v.1.15,2013-03-14 18:24:00,
2013-03-14 14:30:00,32.3,7.0,30.08,SSW,212,4.0,4.0,34,0.00,,,0.00,Wunderground v.1.15,2013-03-14 18:30:00,
2013-03-14 14:36:00,32.8,6.8,30.08,SW,229,3.0,7.0,33,0.00,,,0.00,Wunderground v.1.15,2013-03-14 18:36:00,
2013-03-14 14:42:00,32.7,6.7,30.07,West,280,4.0,5.0,33,0.00,,,0.00,Wunderground v.1.15,2013-03-14 18:42:00,
2013-03-14 14:48:00,33.1,7.7,30.08,NW,326,3.0,5.0,34,0.00,,,0.00,Wunderground v.1.15,2013-03-14 18:48:00,
2013-03-14 14:54:00,33.2,9.1,30.07,NNE,27,3.0,4.0,36,0.00,,,0.00,Wunderground v.1.15,2013-03-14 18:54:00,
2013-03-14 15:00:00,32.9,7.6,30.07,WNW,299,4.0,4.0,34,0.00,,,0.00,Wunderground v.1.15,2013-03-14 19:00:00,
2013-03-14 15:06:00,33.2,6.5,30.07,SSE,156,4.0,9.0,32,0.00,,,0.00,Wunderground v.1.15,2013-03-14 19:06:00,
2013-03-14 15:12:00,32.9,6.2,30.08,SSE,149,4.0,6.0,32,0.00,,,0.00,Wunderground v.1.15,2013-03-14 19:12:00,
2013-03-14 15:18:00,32.9,7.6,30.07,NW,320,4.0,6.0,34,0.00,,,0.00,Wunderground v.1.15,2013-03-14 19:18:00,
2013-03-14 15:24:00,33.0,8.3,30.07,WSW,238,3.0,4.0,35,0.00,,,0.00,Wunderground v.1.15,2013-03-14 19:24:00,
2013-03-14 15:30:00,33.2,10.3,30.07,South,188,4.0,4.0,38,0.00,,,0.00,Wunderground v.1.15,2013-03-14 19:30:00,
2013-03-14 15:36:00,32.9,7.6,30.07,SE,127,4.0,6.0,34,0.00,,,0.00,Wunderground v.1.15,2013-03-14 19:36:00,
2013-03-14 15:42:00,33.0,8.9,30.07,ENE,63,4.0,5.0,36,0.00,,,0.00,Wunderground v.1.15,2013-03-14 19:42:00,
2013-03-14 15:48:00,33.3,9.8,30.06,North,8,4.0,5.0,37,0.00,,,0.00,Wunderground v.1.15,2013-03-14 19:48:00,
2013-03-14 15:54:00,33.4,11.1,30.06,NW,322,3.0,7.0,39,0.00,,,0.00,Wunderground v.1.15,2013-03-14 19:54:00,
2013-03-14 16:00:00,33.6,11.2,30.06,NNE,13,3.0,5.0,39,0.00,,,0.00,Wunderground v.1.15,2013-03-14 20:00:00,
2013-03-14 16:06:00,34.1,12.8,30.06,SSW,198,3.0,5.0,41,0.00,,,0.00,Wunderground v.1.15,2013-03-14 20:06:00,
2013-03-14 16:12:00,34.4,13.6,30.06,SSW,209,3.0,3.0,42,0.00,,,0.00,Wunderground v.1.15,2013-03-14 20:12:00,
2013-03-14 16:18:00,34.3,11.9,30.06,WNW,300,3.0,4.0,39,0.00,,,0.00,Wunderground v.1.15,2013-03-14 20:18:00,
2013-03-14 16:24:00,34.0,12.7,30.06,SSW,203,3.0,4.0,41,0.00,,,0.00,Wunderground v.1.15,2013-03-14 20:24:00,
2013-03-14 16:30:00,34.5,13.2,30.06,NNW,330,3.0,3.0,41,0.00,,,0.00,Wunderground v.1.15,2013-03-14 20:30:00,
2013-03-14 16:36:00,34.2,13.5,30.06,NNW,345,2.0,4.0,42,0.00,,,0.00,Wunderground v.1.15,2013-03-14 20:36:00,
2013-03-14 16:42:00,33.9,12.6,30.06,North,3,3.0,5.0,41,0.00,,,0.00,Wunderground v.1.15,2013-03-14 20:42:00,
2013-03-14 16:48:00,34.2,13.5,30.05,SW,236,3.0,5.0,42,0.00,,,0.00,Wunderground v.1.15,2013-03-14 20:48:00,
2013-03-14 16:54:00,34.9,13.0,30.05,West,263,2.0,3.0,40,0.00,,,0.00,Wunderground v.1.15,2013-03-14 20:54:00,
2013-03-14 17:00:00,35.0,13.6,30.05,West,271,2.0,2.0,41,0.00,,,0.00,Wunderground v.1.15,2013-03-14 21:00:00,
2013-03-14 17:06:00,34.9,13.5,30.06,NNW,333,3.0,6.0,41,0.00,,,0.00,Wunderground v.1.15,2013-03-14 21:06:00,
2013-03-14 17:12:00,34.7,13.4,30.05,ENE,78,3.0,3.0,41,0.00,,,0.00,Wunderground v.1.15,2013-03-14 21:12:00,
2013-03-14 17:18:00,34.7,13.9,30.06,NW,326,3.0,5.0,42,0.00,,,0.00,Wunderground v.1.15,2013-03-14 21:18:00,
2013-03-14 17:24:00,34.4,14.2,30.06,NE,48,3.0,7.0,43,0.00,,,0.00,Wunderground v.1.15,2013-03-14 21:24:00,
2013-03-14 17:30:00,34.4,14.2,30.06,WSW,250,3.0,3.0,43,0.00,,,0.00,Wunderground v.1.15,2013-03-14 21:30:00,
2013-03-14 17:36:00,34.1,13.4,30.06,NE,44,2.0,3.0,42,0.00,,,0.00,Wunderground v.1.15,2013-03-14 21:36:00,
2013-03-14 17:42:00,34.2,14.0,30.06,SSE,159,2.0,9.0,43,0.00,,,0.00,Wunderground v.1.15,2013-03-14 21:42:00,
2013-03-14 17:48:00,34.0,13.3,30.05,SW,236,4.0,9.0,42,0.00,,,0.00,Wunderground v.1.15,2013-03-14 21:48:00,
2013-03-14 17:56:00,33.5,12.8,30.06,NNE,12,4.0,4.0,42,0.00,,,0.00,Wunderground v.1.15,2013-03-14 21:56:00,
2013-03-14 18:02:00,33.3,12.6,30.06,NW,304,4.0,4.0,42,0.00,,,0.00,Wunderground v.1.15,2013-03-14 22:02:00,
2013-03-14 18:08:00,33.0,12.9,30.06,SW,225,3.0,4.0,43,0.00,,,0.00,Wunderground v.1.15,2013-03-14 22:08:00,
2013-03-14 18:14:00,32.3,12.8,30.06,SW,236,3.0,4.0,44,0.00,,,0.00,Wunderground v.1.15,2013-03-14 22:14:00,
2013-03-14 18:20:00,31.8,12.8,30.06,WSW,250,3.0,3.0,45,0.00,,,0.00,Wunderground v.1.15,2013-03-14 22:20:00,
2013-03-14 18:26:00,31.5,13.1,30.06,WSW,255,3.0,5.0,46,0.00,,,0.00,Wunderground v.1.15,2013-03-14 22:26:00,
2013-03-14 18:32:00,31.3,12.9,30.06,WSW,248,3.0,7.0,46,0.00,,,0.00,Wunderground v.1.15,2013-03-14 22:32:00,
2013-03-14 18:38:00,31.0,12.1,30.06,WSW,248,3.0,8.0,45,0.00,,,0.00,Wunderground v.1.15,2013-03-14 22:38:00,
2013-03-14 18:44:00,30.6,12.2,30.06,WSW,238,4.0,5.0,46,0.00,,,0.00,Wunderground v.1.15,2013-03-14 22:44:00,
2013-03-14 18:50:00,30.4,12.1,30.07,ENE,76,4.0,5.0,46,0.00,,,0.00,Wunderground v.1.15,2013-03-14 22:50:00,
2013-03-14 18:56:00,30.1,12.3,30.07,South,185,4.0,5.0,47,0.00,,,0.00,Wunderground v.1.15,2013-03-14 22:56:00,
2013-03-14 19:02:00,29.8,12.0,30.07,South,170,4.0,6.0,47,0.00,,,0.00,Wunderground v.1.15,2013-03-14 23:02:00,
2013-03-14 19:08:00,29.6,11.8,30.07,SSW,197,4.0,6.0,47,0.00,,,0.00,Wunderground v.1.15,2013-03-14 23:08:00,
2013-03-14 19:14:00,29.4,12.1,30.07,SSW,210,2.0,3.0,48,0.00,,,0.00,Wunderground v.1.15,2013-03-14 23:14:00,
2013-03-14 19:20:00,29.2,12.4,30.07,SW,231,1.0,2.0,49,0.00,,,0.00,Wunderground v.1.15,2013-03-14 23:20:00,
2013-03-14 19:26:00,29.1,12.3,30.07,SW,229,2.0,2.0,49,0.00,,,0.00,Wunderground v.1.15,2013-03-14 23:26:00,
2013-03-14 19:32:00,29.0,12.7,30.07,ESE,106,2.0,4.0,50,0.00,,,0.00,Wunderground v.1.15,2013-03-14 23:32:00,
2013-03-14 19:38:00,28.9,13.0,30.08,SW,224,2.0,4.0,51,0.00,,,0.00,Wunderground v.1.15,2013-03-14 23:38:00,
2013-03-14 19:44:00,28.8,13.8,30.07,WSW,253,3.0,6.0,53,0.00,,,0.00,Wunderground v.1.15,2013-03-14 23:44:00,
2013-03-14 19:50:00,28.7,14.1,30.08,NW,316,3.0,3.0,54,0.00,,,0.00,Wunderground v.1.15,2013-03-14 23:50:00,
2013-03-14 19:56:00,28.6,14.0,30.08,West,274,3.0,4.0,54,0.00,,,0.00,Wunderground v.1.15,2013-03-14 23:56:00,
2013-03-14 20:02:00,28.4,13.9,30.08,WNW,300,2.0,3.0,54,0.00,,,0.00,Wunderground v.1.15,2013-03-15 00:02:00,
2013-03-14 20:08:00,28.3,13.8,30.08,WSW,243,3.0,5.0,54,0.00,,,0.00,Wunderground v.1.15,2013-03-15 00:08:00,
2013-03-14 20:14:00,28.2,14.1,30.08,SSW,212,2.0,3.0,55,0.00,,,0.00,Wunderground v.1.15,2013-03-15 00:14:00,
2013-03-14 20:20:00,28.0,13.9,30.08,West,271,2.0,2.0,55,0.00,,,0.00,Wunderground v.1.15,2013-03-15 00:20:00,
2013-03-14 20:26:00,27.9,13.4,30.08,SE,145,2.0,7.0,54,0.00,,,0.00,Wunderground v.1.15,2013-03-15 00:26:00,
2013-03-14 20:32:00,27.8,13.3,30.08,SE,126,3.0,3.0,54,0.00,,,0.00,Wunderground v.1.15,2013-03-15 00:32:00,
2013-03-14 20:38:00,27.8,13.3,30.08,South,181,3.0,6.0,54,0.00,,,0.00,Wunderground v.1.15,2013-03-15 00:38:00,
2013-03-14 20:44:00,27.7,13.6,30.08,NNE,23,3.0,5.0,55,0.00,,,0.00,Wunderground v.1.15,2013-03-15 00:44:00,
2013-03-14 20:50:00,27.6,13.9,30.08,SW,231,3.0,3.0,56,0.00,,,0.00,Wunderground v.1.15,2013-03-15 00:50:00,
2013-03-14 20:56:00,27.5,14.2,30.08,SW,226,2.0,5.0,57,0.00,,,0.00,Wunderground v.1.15,2013-03-15 00:56:00,
2013-03-14 21:02:00,27.3,14.5,30.08,WSW,253,2.0,2.0,58,0.00,,,0.00,Wunderground v.1.15,2013-03-15 01:02:00,
2013-03-14 21:08:00,27.1,14.7,30.07,SSW,198,1.0,2.0,59,0.00,,,0.00,Wunderground v.1.15,2013-03-15 01:08:00,
2013-03-14 21:14:00,27.0,14.6,30.08,ENE,65,2.0,4.0,59,0.00,,,0.00,Wunderground v.1.15,2013-03-15 01:14:00,
2013-03-14 21:20:00,27.0,14.6,30.08,SW,222,2.0,3.0,59,0.00,,,0.00,Wunderground v.1.15,2013-03-15 01:20:00,
2013-03-14 21:26:00,26.9,14.5,30.08,WSW,248,2.0,4.0,59,0.00,,,0.00,Wunderground v.1.15,2013-03-15 01:26:00,
2013-03-14 21:32:00,26.9,14.5,30.09,ENE,58,2.0,2.0,59,0.00,,,0.00,Wunderground v.1.15,2013-03-15 01:32:00,
2013-03-14 21:38:00,26.8,14.4,30.08,South,186,2.0,2.0,59,0.00,,,0.00,Wunderground v.1.15,2013-03-15 01:38:00,
2013-03-14 21:44:00,26.8,14.4,30.09,SSW,210,3.0,6.0,59,0.00,,,0.00,Wunderground v.1.15,2013-03-15 01:44:00,
2013-03-14 21:50:00,26.7,14.3,30.08,East,82,3.0,3.0,59,0.00,,,0.00,Wunderground v.1.15,2013-03-15 01:50:00,
2013-03-14 21:56:00,26.6,14.2,30.08,SW,233,2.0,3.0,59,0.00,,,0.00,Wunderground v.1.15,2013-03-15 01:56:00,
2013-03-14 22:02:00,26.6,14.2,30.09,WSW,245,3.0,3.0,59,0.00,,,0.00,Wunderground v.1.15,2013-03-15 02:02:00,
2013-03-14 22:08:00,26.4,14.4,30.09,North,8,2.0,3.0,60,0.00,,,0.00,Wunderground v.1.15,2013-03-15 02:08:00,
2013-03-14 22:14:00,26.2,14.6,30.09,SW,233,2.0,3.0,61,0.00,,,0.00,Wunderground v.1.15,2013-03-15 02:14:00,
2013-03-14 22:20:00,26.2,14.6,30.09,SSW,210,2.0,2.0,61,0.00,,,0.00,Wunderground v.1.15,2013-03-15 02:20:00,
2013-03-14 22:26:00,26.1,14.5,30.09,SW,233,2.0,3.0,61,0.00,,,0.00,Wunderground v.1.15,2013-03-15 02:26:00,
2013-03-14 22:38:00,25.9,14.7,30.08,West,264,2.0,3.0,62,0.00,,,0.00,Wunderground v.1.15,2013-03-15 02:38:00,
2013-03-14 22:44:00,26.0,15.1,30.08,SW,219,2.0,3.0,63,0.00,,,0.00,Wunderground v.1.15,2013-03-15 02:44:00,
2013-03-14 22:50:00,26.0,15.1,30.08,West,274,2.0,3.0,63,0.00,,,0.00,Wunderground v.1.15,2013-03-15 02:50:00,
2013-03-14 22:56:00,26.1,15.2,30.08,South,174,1.0,3.0,63,0.00,,,0.00,Wunderground v.1.15,2013-03-15 02:56:00,
2013-03-14 23:02:00,26.1,15.6,30.07,WSW,252,1.0,3.0,64,0.00,,,0.00,Wunderground v.1.15,2013-03-15 03:02:00,
2013-03-14 23:08:00,26.1,15.6,30.07,SSW,198,1.0,3.0,64,0.00,,,0.00,Wunderground v.1.15,2013-03-15 03:08:00,
2013-03-14 23:14:00,26.1,15.6,30.07,West,270,1.0,1.0,64,0.00,,,0.00,Wunderground v.1.15,2013-03-15 03:14:00,
2013-03-14 23:20:00,26.1,15.6,30.06,SW,218,1.0,2.0,64,0.00,,,0.00,Wunderground v.1.15,2013-03-15 03:20:00,
2013-03-14 23:28:00,26.1,15.9,30.07,SSW,193,1.0,4.0,65,0.00,,,0.00,Wunderground v.1.15,2013-03-15 03:28:00,
2013-03-14 23:34:00,26.1,15.9,30.06,SW,226,1.0,4.0,65,0.00,,,0.00,Wunderground v.1.15,2013-03-15 03:34:00,
2013-03-14 23:40:00,26.1,15.9,30.07,SW,226,1.0,1.0,65,0.00,,,0.00,Wunderground v.1.15,2013-03-15 03:40:00,
2013-03-14 23:46:00,26.1,16.3,30.07,WSW,252,2.0,2.0,66,0.00,,,0.00,Wunderground v.1.15,2013-03-15 03:46:00,
2013-03-14 23:52:00,26.1,16.3,30.06,SW,222,2.0,2.0,66,0.00,,,0.00,Wunderground v.1.15,2013-03-15 03:52:00,
2013-03-14 23:58:00,25.9,16.4,30.06,West,277,1.0,3.0,67,0.00,,,0.00,Wunderground v.1.15,2013-03-15 03:58:00,